OpenBCM V1.08-5-g2f4a (Linux)

Packet Radio Mailbox

IZ3LSV

[San Dona' di P. JN]

 Login: GUEST





  
I0OJJ  > KEPS     22.03.25 02:25l 328 Lines 15599 Bytes #2 (0) @ AMSAT
BID : ORB25081.1
Read: GUEST
Subj: 2Line Orbital Elements 25081.AMSAT
Path: IZ3LSV<I0OJJ
Sent: 250322/0025z @:I0OJJ.ITA.EU [Rome] obcm1.08-6-g5b69
From: I0OJJ @ I0OJJ.ITA.EU (Gustavo)
To:   KEPS @ AMSAT
X-Info: This message was generated automatically


QST de W1STR

AMSAT Orbital Elements for Amateur Satellites in TLE Format
From Orbital Analysis Office
New England Sci-Tech STEM Education Center
Natick, MA March 22, 2025
To all radio amateurs


These element sets describe the orbits of various satellites 
in use by the amateur radio community. For details see:
www.amsat.org/keplerian-elements-formats/

A daily update of element sets is available at:
www.amsat.org/tle/daily-bulletin.txt
or without bulletin text:
www.amsat.org/tle/dailytle.txt


AO-07
1 07530U 74089B   25080.62013226 -.00000023  00000-0  14664-3 0  9990
2 07530 101.9955  84.0282 0011882 274.8740 200.9216 12.53687328303802
UO-11
1 14781U 84021B   25080.44284897  .00004534  00000-0  48795-3 0  9999
2 14781  97.7456  48.4593 0006342 234.4372 125.6254 14.88962910189713
AO-27
1 22825U 93061C   25080.56563724  .00000389  00000-0  16583-3 0  9997
2 22825  98.7463 141.6898 0008145 355.2443   4.8661 14.30754704642270
FO-29
1 24278U 96046B   25080.31016616  .00000024  00000-0  60421-4 0  9990
2 24278  98.5839 344.7407 0349767 190.3738 169.0051 13.53241123411916
NOAA-15
1 25338U 98030A   25080.80525717  .00000545  00000-0  24186-3 0  9999
2 25338  98.5444 107.8262 0009444 228.1074 131.9302 14.26916729397025
GO-32
1 25397U 98043D   25080.53740232  .00000382  00000-0  18543-3 0  9998
2 25397  98.9635  58.0173 0002355  83.1748 276.9697 14.24277473386899
ISS
1 25544U 98067A   25080.82046997  .00027199  00000-0  48689-3 0  9996
2 25544  51.6368  19.7510 0003832  36.6241 323.5009 15.49763053501610
NO-44
1 26931U 01043C   25080.79868385  .00000666  00000-0  28052-3 0  9996
2 26931  67.0525 334.1088 0005642 267.5179  92.5277 14.31665445225841
SO-50
1 27607U 02058C   25080.42550032  .00004499  00000-0  58375-3 0  9990
2 27607  64.5535  87.8910 0047101 353.5067   6.5421 14.81188081197350
CO-55
1 27844U 03031E   25080.57573886  .00001136  00000-0  51473-3 0  9990
2 27844  98.6795  89.8747 0010736  63.4340 296.7938 14.23886910127254
CO-57
1 27848U 03031J   25080.55740776  .00000959  00000-0  44312-3 0  9992
2 27848  98.6821  89.9218 0010748  78.5489 281.6896 14.23237328126984
RS-22
1 27939U 03042A   25080.89761514  .00003829  00000-0  61801-3 0  9996
2 27939  98.3201 248.4688 0010535 261.0977 259.4153 14.71988770149107
NOAA-18
1 28654U 05018A   25080.85123019  .00000549  00000-0  31435-3 0  9990
2 28654  98.8454 161.2180 0013886   0.3156 359.8023 14.13549873 22486
CO-58
1 28895U 05043F   25080.37895531  .00005495  00000-0  91269-3 0  9993
2 28895  98.2354 223.8076 0014715 197.3466 162.7238 14.70490637 35151
CO-65
1 32785U 08021C   25080.49581574  .00012649  00000-0  94115-3 0  9999
2 32785  97.7786  51.1749 0012716 115.4669 244.7872 15.03035298917048
AAUSAT2
1 32788U 08021F   25080.41329992  .00216729  00000-0  28153-2 0  9991
2 32788  97.6068  74.1522 0004422 124.7272 235.4400 15.58060767920783
CO-66
1 32791U 08021J   25080.91557331  .00033141  00000-0  17380-2 0  9995
2 32791  97.7234  59.3621 0007165  86.6734 273.5317 15.15664486918490
RS-30
1 32953U 08025A   25080.88848922  .00000035  00000-0  17847-3 0  9999
2 32953  82.4976 276.7525 0018960 217.7524 142.2227 12.43160397763637
NOAA-19
1 33591U 09005A   25080.84462849  .00000486  00000-0  28308-3 0  9997
2 33591  99.0059 145.0764 0013172 225.6715 134.3378 14.13316449830842
SRMSAT
1 37841U 11058D   25080.63506623  .00000763  00000-0  27132-3 0  9998
2 37841  19.9719 278.3211 0011692 265.7442 143.3843 14.11390344693806
ZACUBE-1
1 39417U 13066B   25080.46500489  .00013332  00000-0  11877-2 0  9999
2 39417  97.7712  38.0077 0044064 321.7180  38.0914 14.95396884612937
Delfi-N3xt
1 39428U 13066N   25080.31892765  .00016989  00000-0  17922-2 0  9994
2 39428  97.8357 358.9562 0085317 264.6933  94.4544 14.86675203607142
GOMX-1
1 39430U 13066Q   25080.84393165  .00005439  00000-0  85104-3 0  9991
2 39430  97.6952 304.3736 0135033  87.6010 274.0648 14.67132785603714
LO-74
1 39440U 13066AA  25080.40036056  .00011839  00000-0  12208-2 0  9992
2 39440  97.8423  25.6065 0065659  84.5951 276.2751 14.88755684609508
AO-73
1 39444U 13066AE  25080.58131613  .00018892  00000-0  14783-2 0  9996
2 39444  97.7624  42.3648 0039539 298.4039  61.3201 15.00463180611584
DTUSAT-2
1 40030U 14033W   25080.57572157  .00018597  00000-0  12613-2 0  9997
2 40030  98.0489  48.6561 0008703 345.5492  14.5484 15.06459830584348
EO-80
1 40032U 14033Y   25080.46717944  .00017203  00000-0  11652-2 0  9997
2 40032  98.0360  48.3082 0006616 273.3413  86.7056 15.06540980584304
LILACSAT-2
1 40908U 15049K   25080.83335216  .00026088  00000-0  73708-3 0  9998
2 40908  97.5146  99.3590 0011950  89.0110 271.2503 15.36262297525976
IO-86
1 40931U 15052B   25038.81889873  .00001817  00000-0  15548-3 0  9993
2 40931   6.0001 108.1159 0012838 187.7041 172.2889 14.78568669506492
Horyu-4
1 41340U 16012D   25079.96521770  .00042389  00000-0  13253-2 0  9994
2 41340  30.9973 312.3194 0008632 309.9819  50.0067 15.31898834500391
Lapan A3
1 41603U 16040E   25080.88057823  .00008003  00000-0  28622-3 0  9995
2 41603  97.1405  88.6484 0010998 183.4157 176.7010 15.28999148485607
CAS-2T
1 41847U 16066G   25080.75326421  .00003736  00000-0  53704-3 0  9999
2 41847  98.4251 155.9035 0348121  60.0736 303.4548 14.43191083439506
CAS-4B
1 42759U 17034B   25080.84510095  .00086305  00000-0  13859-2 0  9999
2 42759  43.0104  73.3328 0015997  93.9296 266.3394 15.51912838430166
CAS-4A
1 42761U 17034D   25080.86234036  .00086563  00000-0  13582-2 0  9991
2 42761  43.0139  71.0219 0017385  99.8221 260.4604 15.52527843430187
TechnoSat
1 42829U 17042E   25080.46782770  .00009143  00000-0  72186-3 0  9999
2 42829  97.3912 253.0229 0012881 188.2164 171.8852 15.00848488418709
AO-91
1 43017U 17073E   25080.55258114  .00016668  00000-0  87541-3 0  9994
2 43017  97.5388 313.3883 0180505  79.0356 283.1117 15.02713366397180
S-Net D
1 43186U 18014G   25080.45138337  .00011774  00000-0  71643-3 0  9999
2 43186  97.5693 344.2103 0010727 131.5118 228.7034 15.10532234390270
S-Net B
1 43187U 18014H   25080.72077597  .00011360  00000-0  69145-3 0  9995
2 43187  97.5695 344.4444 0011575 127.3121 232.9165 15.10521893390318
S-Net A
1 43188U 18014J   25080.45203914  .00011778  00000-0  71647-3 0  9993
2 43188  97.5704 344.3185 0011474 128.7367 231.4890 15.10536503390274
S-Net C
1 43189U 18014K   25080.32553777  .00011915  00000-0  72498-3 0  9993
2 43189  97.5721 344.1936 0013135 122.9935 237.2558 15.10507755388807
Ten-Koh
1 43677U 18084G   25080.43023784  .00007686  00000-0  62385-3 0  9998
2 43677  98.0972 249.4885 0010447 173.1862 186.9504 14.99900884348222
PO-101
1 43678U 18084H   25080.83797759  .00007143  00000-0  61429-3 0  9999
2 43678  98.0998 253.9668 0008223 181.6959 178.4236 14.97703830348442
QO-100
1 43700U 18090A   25080.26025156  .00000150  00000-0  00000-0 0  9990
2 43700   0.0146 219.6947 0001407 173.5743 265.2653  1.00268923 23136
MinXSS-2
1 43758U 18099A   25080.23603763  .00032499  00000-0  14153-2 0  9992
2 43758  97.5106 146.1650 0013698  83.4223 276.8571 15.22062651344736
AO-95
1 43770U 18099N   25080.60191619  .00018529  00000-0  99221-3 0  9997
2 43770  97.5018 139.6405 0012638 128.4617 231.7751 15.15002536344432
RANGE-A
1 43773U 18099R   25080.07848633  .00012469  00000-0  81429-3 0  9994
2 43773  97.4595 130.8244 0013162 107.8759 252.3906 15.07898444344083
MOVE-II
1 43780U 18099Y   25080.17579135  .00133349  00000-0  24387-2 0  9991
2 43780  97.4743 151.4265 0002796 112.0347 248.1201 15.48873199345256
SNUSat 2
1 43782U 18099AA  25080.69305392  .00016600  00000-0  94739-3 0  9991
2 43782  97.4708 137.1121 0013627  74.2672 286.0061 15.12738125344418
SnugLite
1 43784U 18099AC  25080.84678796  .00023489  00000-0  12469-2 0  9993
2 43784  97.4518 136.6815 0004776  83.2815 276.8960 15.15320085344552
ITASat 1
1 43786U 18099AE  25080.61637424  .00014344  00000-0  85095-3 0  9999
2 43786  97.4677 136.7669 0016410 121.1140 239.1703 15.11338553344371
EAGLET 1
1 43790U 18099AJ  25080.09496201  .00011756  00000-0  76650-3 0  9993
2 43790  97.4872 136.4534 0013792 105.6667 254.6084 15.07967206343935
ESEO
1 43792U 18099AL  25080.21405652  .00005632  00000-0  43198-3 0  9996
2 43792  97.4597 130.8707 0012335  78.1824 282.0785 15.02126496343758
CSIM
1 43793U 18099AM  25080.15520715  .00131830  00000-0  23682-2 0  9993
2 43793  97.4930 153.4864 0004130  57.2538 302.9111 15.49387372345096
JO-97
1 43803U 18099AX  25080.78117173  .00024350  00000-0  11931-2 0  9996
2 43803  97.4765 140.6664 0008735  71.6208 288.5975 15.18106888344654
Suomi 100
1 43804U 18099AY  25080.61091259  .00019012  00000-0  98605-3 0  9998
2 43804  97.4834 139.9984 0014066  71.0427 289.2328 15.16110025344576
ISAT
1 43879U 18111D   25080.27382927  .00036845  00000-0  14538-2 0  9997
2 43879  97.5998 353.1141 0012203 113.5013 246.7508 15.25384694341434
UWE-4
1 43880U 18111E   25080.32766285  .00029202  00000-0  12625-2 0  9992
2 43880  97.5938 352.1564 0014980 124.9671 235.2974 15.22317528341404
Sparrow
1 43881U 18111F   25080.57688843  .00039859  00000-0  15257-2 0  9996
2 43881  97.6128 356.0122 0008972 142.6498 217.5366 15.26410871341562
Prox-1
1 44339U 19036A   25080.73102608  .00021119  00000-0  28582-2 0  9995
2 44339  23.9957 225.4536 0006220 238.7436 121.2451 14.77462748306274
SONATE
1 44400U 19038Q   25080.56952702  .00120040  00000-0  11771-2 0  9990
2 44400  97.7055  98.5071 0009865 166.0785 194.0748 15.65637269316955
Taurus 1
1 44530U 19059C   25080.82363989  .00021559  00000-0  41085-2 0  9995
2 44530  98.5953 216.5680 0009704 273.8189  86.1902 14.64003864292266
